Location: Unspecified
(51.0000°N, 12.0000°E)
Time: 04:21:55
(UTC+01:00)

N. Korean satellite - Pass Details

Date: 19 October 2019
Orbit: 456 x 506 km, 97.2° (Epoch: 21 November)

Event Time Altitude Azimuth Distance (km) Brightness Sun altitude
Rises 19:25:34 0° 214° (SW) 2,468 10.7 -12.3°
Reaches altitude 10° 19:28:40 10° 247° (WSW) 1,605 10.3 -12.8°
Maximum altitude 19:30:07 12° 272° (W) 1,480 10.4 -13.0°
Drops below altitude 10° 19:31:35 10° 297° (WNW) 1,617 10.3 -13.2°
Sets 19:34:45 0° 329° (NNW) 2,509 10.7 -13.7°
